Time,TemperatureF,DewpointF,PressureIn,WindDirection,WindDirectionDegrees,WindSpeedMPH,WindSpeedGustMPH,Humidity,HourlyPrecipIn,Conditions,Clouds,dailyrainin,SoftwareType,DateUTC
2013-05-03 00:11:00,36.7,28.0,30.47,NW,314,0.0,6.0,72,0.00,,,0.00,weatherlink.com 1.10,2013-05-03 06:11:00,
2013-05-03 00:26:00,36.3,28.0,30.47,NW,313,1.0,5.0,73,0.00,,,0.00,weatherlink.com 1.10,2013-05-03 06:26:00,
2013-05-03 00:41:00,35.8,29.0,30.47,NW,311,0.0,4.0,75,0.00,,,0.00,weatherlink.com 1.10,2013-05-03 06:41:00,
2013-05-03 00:56:00,35.3,29.0,30.46,NW,310,3.0,6.0,77,0.00,,,0.00,weatherlink.com 1.10,2013-05-03 06:56:00,
2013-05-03 01:12:00,35.7,29.0,30.46,NW,312,5.0,6.0,75,0.00,,,0.00,weatherlink.com 1.10,2013-05-03 07:12:00,
2013-05-03 01:27:00,35.4,28.0,30.45,NW,312,1.0,5.0,75,0.00,,,0.00,weatherlink.com 1.10,2013-05-03 07:27:00,
2013-05-03 01:42:00,35.0,28.0,30.45,NW,312,0.0,2.0,76,0.00,,,0.00,weatherlink.com 1.10,2013-05-03 07:42:00,
2013-05-03 01:57:00,34.6,28.0,30.44,NW,313,1.0,3.0,77,0.00,,,0.00,weatherlink.com 1.10,2013-05-03 07:57:00,
2013-05-03 02:12:00,34.2,28.0,30.43,NW,312,2.0,4.0,77,0.00,,,0.00,weatherlink.com 1.10,2013-05-03 08:12:00,
2013-05-03 02:27:00,34.5,28.0,30.43,NW,312,2.0,4.0,77,0.00,,,0.00,weatherlink.com 1.10,2013-05-03 08:27:00,
2013-05-03 02:42:00,33.9,27.0,30.43,NW,312,0.0,1.0,77,0.00,,,0.00,weatherlink.com 1.10,2013-05-03 08:42:00,
2013-05-03 02:57:00,33.8,28.0,30.43,NW,313,0.0,2.0,79,0.00,,,0.00,weatherlink.com 1.10,2013-05-03 08:57:00,
2013-05-03 03:12:00,33.9,28.0,30.42,NW,312,0.0,3.0,78,0.00,,,0.00,weatherlink.com 1.10,2013-05-03 09:12:00,
2013-05-03 03:27:00,33.5,27.0,30.42,NW,313,0.0,1.0,78,0.00,,,0.00,weatherlink.com 1.10,2013-05-03 09:27:00,
2013-05-03 03:42:00,33.1,27.0,30.41,NW,312,0.0,1.0,79,0.00,,,0.00,weatherlink.com 1.10,2013-05-03 09:42:00,
2013-05-03 03:57:00,33.0,27.0,30.41,NW,313,1.0,1.0,79,0.00,,,0.00,weatherlink.com 1.10,2013-05-03 09:57:00,
2013-05-03 04:12:00,33.0,27.0,30.42,NW,308,2.0,5.0,79,0.00,,,0.00,weatherlink.com 1.10,2013-05-03 10:12:00,
2013-05-03 04:27:00,32.9,27.0,30.41,NW,306,4.0,6.0,79,0.00,,,0.00,weatherlink.com 1.10,2013-05-03 10:27:00,
2013-05-03 04:42:00,34.3,27.0,30.41,WNW,295,4.0,7.0,76,0.00,,,0.00,weatherlink.com 1.10,2013-05-03 10:42:00,
2013-05-03 04:57:00,35.0,28.0,30.41,WNW,293,1.0,5.0,74,0.00,,,0.00,weatherlink.com 1.10,2013-05-03 10:57:00,
2013-05-03 05:12:00,34.7,27.0,30.41,WNW,289,3.0,8.0,74,0.00,,,0.00,weatherlink.com 1.10,2013-05-03 11:12:00,
2013-05-03 05:28:00,34.2,27.0,30.42,West,281,3.0,7.0,75,0.00,,,0.00,weatherlink.com 1.10,2013-05-03 11:28:00,
2013-05-03 05:42:00,34.2,27.0,30.42,West,281,0.0,4.0,75,0.00,,,0.00,weatherlink.com 1.10,2013-05-03 11:42:00,
2013-05-03 05:57:00,34.2,27.0,30.42,WNW,282,3.0,5.0,75,0.00,,,0.00,weatherlink.com 1.10,2013-05-03 11:57:00,
2013-05-03 06:12:00,34.2,27.0,30.42,WNW,300,2.0,8.0,75,0.00,,,0.00,weatherlink.com 1.10,2013-05-03 12:12:00,
2013-05-03 06:28:00,35.0,28.0,30.43,WNW,294,3.0,8.0,74,0.00,,,0.00,weatherlink.com 1.10,2013-05-03 12:28:00,
2013-05-03 06:42:00,36.1,28.0,30.43,West,278,2.0,11.0,71,0.00,,,0.00,weatherlink.com 1.10,2013-05-03 12:42:00,
2013-05-03 06:57:00,37.2,28.0,30.43,WNW,287,1.0,7.0,70,0.00,,,0.00,weatherlink.com 1.10,2013-05-03 12:57:00,
2013-05-03 07:12:00,39.3,28.0,30.42,WNW,295,4.0,12.0,65,0.00,,,0.00,weatherlink.com 1.10,2013-05-03 13:12:00,
2013-05-03 07:27:00,41.6,28.0,30.42,WNW,299,9.0,14.0,59,0.00,,,0.00,weatherlink.com 1.10,2013-05-03 13:27:00,
2013-05-03 07:42:00,43.5,28.0,30.41,WNW,296,10.0,14.0,55,0.00,,,0.00,weatherlink.com 1.10,2013-05-03 13:42:00,
2013-05-03 07:57:00,45.5,28.0,30.41,NW,312,12.0,13.0,50,0.00,,,0.00,weatherlink.com 1.10,2013-05-03 13:57:00,
2013-05-03 08:12:00,46.9,27.0,30.40,WNW,299,9.0,13.0,47,0.00,,,0.00,weatherlink.com 1.10,2013-05-03 14:12:00,
2013-05-03 08:27:00,48.6,28.0,30.40,WNW,299,9.0,13.0,45,0.00,,,0.00,weatherlink.com 1.10,2013-05-03 14:27:00,
2013-05-03 08:43:00,51.1,27.0,30.39,NW,309,12.0,16.0,40,0.00,,,0.00,weatherlink.com 1.10,2013-05-03 14:43:00,
2013-05-03 08:58:00,53.4,26.0,30.38,NW,318,10.0,17.0,35,0.00,,,0.00,weatherlink.com 1.10,2013-05-03 14:58:00,
2013-05-03 09:13:00,54.5,26.0,30.37,NW,314,12.0,18.0,33,0.00,,,0.00,weatherlink.com 1.10,2013-05-03 15:13:00,
2013-05-03 09:28:00,56.0,26.0,30.36,WNW,299,5.0,14.0,31,0.00,,,0.00,weatherlink.com 1.10,2013-05-03 15:28:00,
2013-05-03 09:43:00,57.5,25.0,30.35,NW,307,9.0,16.0,29,0.00,,,0.00,weatherlink.com 1.10,2013-05-03 15:43:00,
2013-05-03 09:58:00,57.7,25.0,30.34,NW,304,7.0,22.0,29,0.00,,,0.00,weatherlink.com 1.10,2013-05-03 15:58:00,
2013-05-03 10:13:00,57.8,24.0,30.34,NNW,347,10.0,18.0,27,0.00,,,0.00,weatherlink.com 1.10,2013-05-03 16:13:00,
2013-05-03 10:28:00,58.5,24.0,30.33,NW,309,3.0,16.0,26,0.00,,,0.00,weatherlink.com 1.10,2013-05-03 16:28:00,
2013-05-03 10:43:00,59.0,23.0,30.33,NW,323,11.0,18.0,25,0.00,,,0.00,weatherlink.com 1.10,2013-05-03 16:43:00,
2013-05-03 10:58:00,60.0,23.0,30.32,NNW,347,8.0,16.0,24,0.00,,,0.00,weatherlink.com 1.10,2013-05-03 16:58:00,
2013-05-03 11:13:00,60.2,24.0,30.31,WNW,296,10.0,16.0,25,0.00,,,0.00,weatherlink.com 1.10,2013-05-03 17:13:00,
2013-05-03 11:28:00,60.4,23.0,30.30,NW,321,18.0,18.0,24,0.00,,,0.00,weatherlink.com 1.10,2013-05-03 17:28:00,
2013-05-03 11:43:00,61.2,23.0,30.28,NW,324,12.0,17.0,23,0.00,,,0.00,weatherlink.com 1.10,2013-05-03 17:43:00,
2013-05-03 11:58:00,61.7,22.0,30.27,NNW,337,8.0,22.0,22,0.00,,,0.00,weatherlink.com 1.10,2013-05-03 17:58:00,
2013-05-03 12:13:00,62.0,24.0,30.26,NW,312,8.0,13.0,23,0.00,,,0.00,weatherlink.com 1.10,2013-05-03 18:13:00,
2013-05-03 12:28:00,62.3,22.0,30.24,NNW,348,14.0,18.0,21,0.00,,,0.00,weatherlink.com 1.10,2013-05-03 18:28:00,
2013-05-03 12:43:00,62.9,22.0,30.23,WNW,300,10.0,20.0,21,0.00,,,0.00,weatherlink.com 1.10,2013-05-03 18:43:00,
2013-05-03 12:58:00,63.5,23.0,30.22,NW,314,5.0,18.0,21,0.00,,,0.00,weatherlink.com 1.10,2013-05-03 18:58:00,
2013-05-03 13:13:00,64.6,24.0,30.21,NNW,338,6.0,15.0,21,0.00,,,0.00,weatherlink.com 1.10,2013-05-03 19:13:00,
2013-05-03 13:28:00,64.8,21.0,30.19,WNW,287,5.0,18.0,19,0.00,,,0.00,weatherlink.com 1.10,2013-05-03 19:28:00,
2013-05-03 13:44:00,65.4,21.0,30.18,NW,312,7.0,17.0,18,0.00,,,0.00,weatherlink.com 1.10,2013-05-03 19:44:00,
2013-05-03 13:59:00,66.0,20.0,30.17,WNW,299,10.0,19.0,17,0.00,,,0.00,weatherlink.com 1.10,2013-05-03 19:59:00,
2013-05-03 14:14:00,65.8,21.0,30.15,West,268,10.0,14.0,18,0.00,,,0.00,weatherlink.com 1.10,2013-05-03 20:14:00,
2013-05-03 14:29:00,66.8,20.0,30.14,WNW,283,13.0,29.0,17,0.00,,,0.00,weatherlink.com 1.10,2013-05-03 20:29:00,
2013-05-03 14:44:00,66.9,21.0,30.12,West,261,9.0,13.0,17,0.00,,,0.00,weatherlink.com 1.10,2013-05-03 20:44:00,
2013-05-03 14:59:00,67.9,20.0,30.11,NW,320,4.0,17.0,16,0.00,,,0.00,weatherlink.com 1.10,2013-05-03 20:59:00,
2013-05-03 15:14:00,68.1,22.0,30.09,WSW,251,10.0,10.0,17,0.00,,,0.00,weatherlink.com 1.10,2013-05-03 21:14:00,
2013-05-03 15:29:00,67.9,20.0,30.08,WNW,289,6.0,17.0,16,0.00,,,0.00,weatherlink.com 1.10,2013-05-03 21:29:00,
2013-05-03 15:44:00,68.9,21.0,30.07,WSW,245,18.0,19.0,16,0.00,,,0.00,weatherlink.com 1.10,2013-05-03 21:44:00,
2013-05-03 15:59:00,69.7,20.0,30.06,NW,314,10.0,18.0,15,0.00,,,0.00,weatherlink.com 1.10,2013-05-03 21:59:00,
2013-05-03 16:14:00,70.0,22.0,30.05,West,265,11.0,16.0,16,0.00,,,0.00,weatherlink.com 1.10,2013-05-03 22:14:00,
2013-05-03 16:29:00,70.4,20.0,30.04,North,4,8.0,14.0,15,0.00,,,0.00,weatherlink.com 1.10,2013-05-03 22:29:00,
2013-05-03 16:44:00,70.5,21.0,30.03,NW,310,6.0,20.0,15,0.00,,,0.00,weatherlink.com 1.10,2013-05-03 22:44:00,
2013-05-03 16:59:00,70.8,21.0,30.03,NW,316,10.0,16.0,15,0.00,,,0.00,weatherlink.com 1.10,2013-05-03 22:59:00,
2013-05-03 17:14:00,70.8,21.0,30.02,NW,316,8.0,14.0,15,0.00,,,0.00,weatherlink.com 1.10,2013-05-03 23:14:00,
2013-05-03 17:29:00,70.7,21.0,30.01,NNW,329,5.0,14.0,15,0.00,,,0.00,weatherlink.com 1.10,2013-05-03 23:29:00,
2013-05-03 17:44:00,71.0,22.0,30.01,North,11,8.0,12.0,16,0.00,,,0.00,weatherlink.com 1.10,2013-05-03 23:44:00,
2013-05-03 17:59:00,70.7,21.0,30.01,NNE,22,9.0,14.0,15,0.00,,,0.00,weatherlink.com 1.10,2013-05-03 23:59:00,
2013-05-03 18:14:00,70.3,22.0,30.00,NNE,21,4.0,12.0,16,0.00,,,0.00,weatherlink.com 1.10,2013-05-04 00:14:00,
2013-05-03 18:29:00,70.2,22.0,30.00,NE,35,7.0,10.0,16,0.00,,,0.00,weatherlink.com 1.10,2013-05-04 00:29:00,
2013-05-03 18:44:00,69.0,22.0,30.00,NE,35,5.0,15.0,17,0.00,,,0.00,weatherlink.com 1.10,2013-05-04 00:44:00,
2013-05-03 18:59:00,67.9,21.0,30.01,NNE,23,6.0,11.0,17,0.00,,,0.00,weatherlink.com 1.10,2013-05-04 00:59:00,
2013-05-03 19:14:00,66.4,23.0,30.01,NE,54,2.0,10.0,19,0.00,,,0.00,weatherlink.com 1.10,2013-05-04 01:14:00,
2013-05-03 19:29:00,64.2,22.0,30.02,NE,50,8.0,9.0,20,0.00,,,0.00,weatherlink.com 1.10,2013-05-04 01:29:00,
2013-05-03 19:44:00,62.5,23.0,30.02,ENE,59,3.0,8.0,22,0.00,,,0.00,weatherlink.com 1.10,2013-05-04 01:44:00,
2013-05-03 19:59:00,60.5,23.0,30.02,ENE,64,4.0,8.0,24,0.00,,,0.00,weatherlink.com 1.10,2013-05-04 01:59:00,
2013-05-03 20:14:00,59.9,24.0,30.03,ENE,66,3.0,7.0,25,0.00,,,0.00,weatherlink.com 1.10,2013-05-04 02:14:00,
2013-05-03 20:29:00,59.4,24.0,30.03,East,88,7.0,8.0,26,0.00,,,0.00,weatherlink.com 1.10,2013-05-04 02:29:00,
2013-05-03 20:44:00,58.9,26.0,30.03,East,93,7.0,9.0,28,0.00,,,0.00,weatherlink.com 1.10,2013-05-04 02:44:00,
2013-05-03 20:59:00,58.7,27.0,30.04,East,87,5.0,11.0,30,0.00,,,0.00,weatherlink.com 1.10,2013-05-04 02:59:00,
2013-05-03 21:14:00,57.0,27.0,30.04,East,93,1.0,10.0,32,0.00,,,0.00,weatherlink.com 1.10,2013-05-04 03:14:00,
2013-05-03 21:29:00,55.3,28.0,30.05,East,83,2.0,8.0,35,0.00,,,0.00,weatherlink.com 1.10,2013-05-04 03:29:00,
2013-05-03 21:44:00,53.8,28.0,30.05,East,82,1.0,5.0,37,0.00,,,0.00,weatherlink.com 1.10,2013-05-04 03:44:00,
2013-05-03 21:59:00,52.4,27.0,30.05,East,81,2.0,7.0,38,0.00,,,0.00,weatherlink.com 1.10,2013-05-04 03:59:00,
2013-05-03 22:14:00,51.8,28.0,30.05,East,97,2.0,8.0,40,0.00,,,0.00,weatherlink.com 1.10,2013-05-04 04:14:00,
2013-05-03 22:29:00,54.3,28.0,30.05,East,90,7.0,8.0,37,0.00,,,0.00,weatherlink.com 1.10,2013-05-04 04:29:00,
2013-05-03 22:44:00,53.3,29.0,30.04,East,91,2.0,7.0,39,0.00,,,0.00,weatherlink.com 1.10,2013-05-04 04:44:00,
2013-05-03 22:59:00,51.7,28.0,30.05,East,97,3.0,6.0,40,0.00,,,0.00,weatherlink.com 1.10,2013-05-04 04:59:00,
2013-05-03 23:14:00,51.7,28.0,30.04,East,94,0.0,7.0,41,0.00,,,0.00,weatherlink.com 1.10,2013-05-04 05:14:00,
2013-05-03 23:29:00,52.2,28.0,30.04,ESE,117,1.0,7.0,40,0.00,,,0.00,weatherlink.com 1.10,2013-05-04 05:29:00,
2013-05-03 23:44:00,51.6,28.0,30.04,SE,128,0.0,6.0,41,0.00,,,0.00,weatherlink.com 1.10,2013-05-04 05:44:00,
2013-05-03 23:59:00,50.4,28.0,30.05,SE,127,0.0,3.0,43,0.00,,,0.00,weatherlink.com 1.10,2013-05-04 05:59:00,